Location: Cuxton
(51.3500°N, 0.4500°E)
Time: 17:59:44
(UTC+00:00)

Daily predictions for brighter satellites

Satellite Brightness Start Highest point End
(mag) Time Altitude Azimuth Time Altitude Azimuth Time Altitude Azimuth
Cosmos 1933 Rocket 4.0 20:56:50 10° NNW 21:01:14 64° W 21:05:36 10° S
Cosmos 1954 Rocket 4.0 20:58:42 10° SSW 21:04:00 80° ESE 21:09:18 10° NNE
Resurs 01 Rocket 4.2 21:01:16 10° SW 21:04:13 17° W 21:07:11 10° NW
CZ-4C R/B 3.8 21:00:30 10° N 21:04:38 69° WNW 21:08:45 10° SSW
Landsat 4 3.5 21:01:25 10° SSE 21:04:49 68° ENE 21:08:15 10° N
COSMOS 2406 3.5 20:59:33 10° SSW 21:05:19 80° WNW 21:11:06 10° NNE
Cosmos 1980 Rocket 4.0 21:00:46 10° NW 21:05:25 27° WSW 21:10:03 10° SSW
Cosmos 2322 Rocket 2.4 21:00:55 10° NNW 21:06:35 66° ENE 21:12:14 10° SE
Cosmos 1356 Rocket 4.5 21:06:45 10° SSE 21:10:23 29° E 21:14:03 10° NNE
SeaSat 1 3.1 21:08:48 10° SSE 21:13:34 51° WSW 21:18:22 10° NW
Meteor 1-13 Rocket 4.3 21:08:04 10° S 21:13:52 81° E 21:19:34 10° NNE
Cosmos 676 Rocket 4.0 21:08:49 10° SSW 21:14:08 80° ESE 21:19:28 10° NNE
Cosmos 2278 4.1 21:11:05 10° NW 21:16:44 61° WSW 21:22:20 10° SSE
Cosmos 1707 3.4 21:13:30 10° SSW 21:17:02 53° WNW 21:20:35 10° N
MOS 1 Rocket 3.7 21:15:11 10° SSE 21:20:35 85° WSW 21:25:56 10° NNW
USA 234 3.2 21:16:56 10° ENE 21:23:29 67° SE 21:29:58 10° SW
Cosmos 1455 4.0 21:24:19 10° NNE 21:26:46 18° ENE 21:29:12 10° ESE
Cosmos 1400 Rocket 2.7 21:23:12 10° S 21:27:04 72° E 21:30:55 10° NNE
COSMOS 2428 4.3 21:22:16 10° NNW 21:27:06 28° NE 21:31:57 10° E
SL-4 R/B 1.9 21:23:23 10° W 21:27:14 90° N 21:31:22 10° E
Meteor 2-10 Rocket 3.7 21:24:58 10° NNW 21:30:40 89° WSW 21:36:05 10° S
Cosmos 2219 Rocket 2.9 21:28:22 10° NNW 21:33:53 49° NE 21:39:22 10° SE
Landsat 5 3.8 21:30:10 10° NNE 21:34:01 46° E 21:37:58 10° S
Cosmos 841 Rocket 3.9 21:30:50 10° NNW 21:36:01 61° WSW 21:41:12 10° S
SPOT 5 4.5 21:32:31 10° SSW 21:36:08 26° W 21:39:48 10° NW
Cosmos 1707 Rocket 3.8 21:31:54 10° S 21:36:13 53° E 21:40:34 10° NNE
ERS-1 Rocket 4.0 21:33:36 10° S 21:38:22 42° W 21:43:09 10° NNW
ATLAS CENTAUR R/B 1.9 21:35:42 10° S 21:38:43 28° ESE 21:41:49 10° ENE
Cosmos 1315 Rocket 4.2 21:39:54 13° SE 21:42:33 23° E 21:45:46 10° NE
SJ 16-02 2.3 21:39:28 12° SSE 21:42:43 28° ESE 21:46:26 10° NE
ARIANE 5 R/B 3.7 21:39:26 11° SE 21:43:09 32° ENE 21:47:02 10° N
Meteor 1-4 Rocket 3.5 21:41:42 15° SE 21:43:25 23° E 21:45:52 10° NE
SL-27 R/B 2.7 21:41:51 15° SSE 21:43:45 31° ESE 21:46:18 10° NE
Cosmos 1953 3.4 21:41:09 10° N 21:44:37 31° ENE 21:47:31 13° SE
Okean 3 3.9 21:41:42 12° SSE 21:45:13 42° E 21:49:11 10° NNE
Spot 2 Rocket 4.3 21:41:01 10° S 21:45:54 48° W 21:50:51 10° NNW
Aureole 3 3.8 21:49:38 13° SSE 21:52:55 52° E 21:57:35 10° NNE
Cosmos 1300 2.9 21:50:20 10° NNW 21:53:51 59° W 21:57:03 12° S
Cosmos 1733 Rocket 3.2 21:51:07 10° NNW 21:55:32 77° W 21:59:30 13° S
Spot 1 4.2 21:51:27 10° NNE 21:55:55 81° ESE 22:00:38 10° SSW
Meteor 1-23 Rocket 4.4 21:51:39 10° SSW 21:57:19 78° WNW 22:03:06 10° N
Cosmos 2360 Rocket 2.3 21:52:02 10° NNW 21:57:43 73° WSW 22:02:32 14° SSE
Cosmos 1655 Rocket 4.2 21:52:53 10° S 21:59:18 84° W 22:05:45 10° N
Cosmos 839 Rocket 4.2 21:54:01 10° NW 22:01:16 88° NE 22:06:44 14° SE
GP-B 4.1 21:57:23 10° NNE 22:01:26 34° E 22:04:27 16° SE
H-2A R/B 3.8 21:59:14 12° ESE 22:02:40 30° ENE 22:06:24 10° N
ATLAS 2AS CENTAUR R/B 2.8 21:59:09 10° NW 22:05:59 70° SW 22:11:32 15° SSE
Cosmos 2333 Rocket 2.4 22:00:39 10° NW 22:06:22 69° WSW 22:11:07 15° SSE
SL-16 R/B 3.4 22:01:30 10° NW 22:06:35 34° WSW 22:11:37 10° S
Cosmos 1908 Rocket 4.0 22:03:41 10° N 22:07:57 51° ENE 22:11:05 17° SSE
SL-14 R/B 3.7 22:05:19 10° SSW 22:09:03 59° WNW 22:12:49 10° N
Ariane Rocket 4.4 22:06:08 10° SSW 22:10:40 32° W 22:15:15 10° NNW
Cosmos 2228 Rocket 3.5 22:06:17 10° SSW 22:10:48 67° WNW 22:15:23 10° N
MetOp-A 4.4 22:07:04 13° S 22:11:45 61° WSW 22:16:59 10° NNW
RESURS DK-1 3.7 22:08:19 10° NW 22:11:54 30° WSW 22:14:58 13° SSW
Cosmos 807 4.4 22:08:48 12° SSW 22:11:55 71° W 22:14:55 10° N
BREEZE-M DEB (TANK) 3.0 22:09:50 10° WSW 22:12:27 61° SSE 22:18:48 10° E
Cosmos 2082 Rocket 4.4 22:08:47 10° WSW 22:13:42 29° NW 22:18:37 10° NNE
Okean 1-7 3.2 22:13:21 17° S 22:16:35 57° E 22:20:51 10° NNE
Cosmos 1346 Rocket 3.8 22:14:36 10° NNW 22:18:14 39° W 22:21:26 13° SSW
BREEZE-M DEB (TANK) 2.3 22:17:05 10° W 22:22:46 73° N 22:25:05 10° ENE
Cosmos 1833 4.2 22:17:17 10° SSW 22:22:53 69° ESE 22:28:28 10° NE
BlueWalker 3 4.1 22:24:28 11° ESE 22:24:28 11° ESE 22:24:45 10° ESE
Cosmos 1408 4.3 22:22:39 12° ESE 22:23:31 13° E 22:25:04 10° NE
Cosmos 1850 Rocket 4.3 22:18:19 10° SSW 22:23:33 71° WNW 22:28:46 10° NNE
Terra 3.9 22:20:22 10° SW 22:23:47 20° W 22:27:13 10° NW
Cosmos 1242 Rocket 3.1 22:23:20 22° SE 22:24:11 27° E 22:26:36 10° NE
MINOTAUR 4 R/B 4.4 22:22:24 10° NNE 22:25:06 33° E 22:26:10 24° SE
Cosmos 1570 Rocket 4.2 22:25:04 10° NNW 22:30:25 67° ENE 22:34:28 17° SE
Cosmos 2237 Rocket 3.6 22:25:58 10° NNW 22:31:03 32° NE 22:36:05 10° ESE
Cosmos 1300 Rocket 4.3 22:27:02 10° N 22:31:07 40° ENE 22:33:56 18° SE
Cosmos 2322 3.9 22:25:59 10° NNW 22:31:41 72° ENE 22:36:10 17° SE
USA 281 3.3 22:28:55 17° SSE 22:34:11 78° WSW 22:40:49 10° NNW
ALOS 2 3.6 22:32:43 15° SE 22:35:51 38° ENE 22:39:56 10° N
CZ-2C R/B 3.6 22:35:54 10° NNE 22:40:21 78° ESE 22:43:36 18° S
CZ-4C R/B 3.5 22:42:23 14° SE 22:43:38 16° ESE 22:46:39 10° ENE
Cosmos 968 Rocket 3.8 22:40:27 10° SW 22:45:34 67° WNW 22:50:46 10° NNE
Cosmos 2322 Rocket 3.7 22:45:36 10° NW 22:50:11 26° WSW 22:54:24 11° SSW
Cosmos 1703 Rocket 3.5 22:48:43 20° S 22:51:48 84° E 22:56:17 10° NNE
Spot 4 3.9 22:49:10 21° SSE 22:52:22 74° ENE 22:57:12 10° NNW
NOSS 0 Rocket 4.2 22:47:14 10° NNW 22:53:27 66° NE 22:58:45 15° SE
SL-08 R/B 4.5 22:48:53 15° S 22:54:01 84° W 23:00:10 10° N
Cosmos 158 Rocket 4.1 22:49:11 10° NNW 22:54:32 74° ENE 22:58:13 20° SSE
Okean 2 3.8 22:54:53 16° SSW 22:57:57 56° WNW 23:01:56 10° N
EXPRESS MD2 1.7 22:57:09 10° W 22:59:20 60° S 22:59:33 55° SSE
PSLV R/B 3.8 22:55:52 10° NNE 22:59:53 88° WNW 23:02:29 21° SSW
Cosmos 2242 Rocket 4.3 22:57:30 22° SSE 22:59:59 42° E 23:04:19 10° NNE
Cosmos 2297 Rocket 3.6 22:57:55 16° SE 23:00:28 22° ESE 23:04:41 10° NE
Cosmos 1455 2.9 22:58:04 10° NNW 23:01:23 39° W 23:03:18 21° SSW
Cosmos 2208 Rocket 4.0 22:57:14 10° NNW 23:02:29 88° ENE 23:05:55 22° SSE
SL-4 R/B 1.9 23:02:04 10° W 23:06:05 82° S 23:10:20 10° ESE
NOSS 5 (C) 4.1 23:03:11 10° NW 23:06:22 72° SW 23:07:42 31° SSE
USA 234 3.7 23:00:03 10° ENE 23:06:31 65° NNW 23:12:59 10° W
Cosmos 773 Rocket 4.5 23:01:32 10° NNW 23:06:35 54° ENE 23:10:31 16° SE
Cosmos 1932 4.4 23:00:16 10° SW 23:06:36 85° SE 23:12:55 10° NE
SAR-Lupe-3 4.5 23:06:34 28° SSE 23:08:20 89° WSW 23:11:57 10° NNW
COSMOS 2428 2.7 23:06:15 10° NNW 23:11:57 76° WSW 23:15:44 22° SSE
Cosmos 2098 Rocket 4.5 23:07:12 10° N 23:13:40 56° ENE 23:18:28 18° SSE
CENTAUR R/B 4.3 23:13:12 10° ESE 23:15:04 12° E 23:17:04 10° E
COSMOS 2455 3.5 23:12:16 22° SSE 23:15:36 39° ESE 23:21:10 10° NE
Meteor 1-4 Rocket 4.4 23:13:55 10° WSW 23:16:14 20° WNW 23:18:35 10° NNW
ATLAS CENTAUR R/B 2.4 23:12:54 10° WSW 23:16:14 38° NW 23:19:43 10° NNE
GENESIS II 4.2 23:14:53 28° S 23:16:28 51° SE 23:20:01 10° NE
Cosmos 2219 Rocket 3.1 23:12:34 10° NW 23:17:43 36° WSW 23:21:08 19° SSW
Cosmos 1315 Rocket 4.1 23:15:10 12° SW 23:18:32 36° WNW 23:22:16 10° N
ARIANE 5 R/B 3.8 23:16:54 18° SSW 23:19:32 33° W 23:23:28 10° NNW
Cosmos 1953 3.9 23:17:08 10° NNW 23:20:19 25° W 23:22:38 15° SW
SJ 16-02 2.6 23:16:54 10° SW 23:20:56 38° WNW 23:25:01 10° N
PSLV R/B 4.0 23:27:00 10° NNE 23:31:07 46° E 23:33:07 26° SSE
Cosmos 304 Rocket 4.3 23:31:07 25° SSE 23:33:26 42° ESE 23:37:56 10° NE
Cosmos 1745 Rocket 4.2 23:30:01 18° SSW 23:34:55 70° WNW 23:41:18 10° N
H-2A R/B 3.5 23:35:13 21° SSW 23:37:31 36° W 23:41:30 10° NNW
Okean 1 Rocket 4.3 23:36:08 10° N 23:40:05 33° ENE 23:43:06 15° SE
Cosmos 2360 Rocket 4.3 23:38:01 10° WNW 23:40:42 14° W 23:43:23 10° SW
Cosmos 1486 Rocket 4.0 23:41:55 23° SSW 23:45:10 75° ESE 23:50:24 10° NNE
Cosmos 2181 Rocket 4.1 23:39:04 10° N 23:45:19 74° ENE 23:49:34 21° SSE
Cosmos 1825 3.4 23:47:12 21° SE 23:48:28 26° E 23:51:24 10° NNE
Cosmos 2333 Rocket 4.4 23:47:07 10° WNW 23:49:36 13° W 23:52:05 10° WSW
ATLAS 2AS CENTAUR R/B 4.4 23:51:38 10° WNW 23:55:39 17° WSW 23:58:56 12° SW
Cosmos 1408 3.3 23:54:41 23° WSW 23:55:56 34° WNW 23:58:44 10° N
